Location: Chittendens Corners
(41.2320°N, 81.4940°W)
Time: 08:09:35
(UTC+00:00)

YAOGAN 1 - Pass Details

Date: 29 October 2020
Orbit: 618 x 620 km, 97.9° (Epoch: 28 November)

Event Time Altitude Azimuth Distance (km) Brightness Sun altitude
Rises 23:41:30 0° 151° (SSE) 2,884 5.8 -15.0°
Reaches altitude 10° 23:43:44 10° 146° (SE) 1,982 4.9 -15.4°
Maximum altitude 23:47:52 47° 72° (ENE) 823 2.7 -16.2°
Drops below altitude 10° 23:52:02 10° 359° (N) 1,996 5.1 -17.0°
Sets 23:54:17 0° 354° (N) 2,906 6.0 -17.4°
